| time (UTC) | temp F | wind direction | speed MPH | gust MPH | rain 1hr in | rain 24hr in | rain mn in | humidity % | barometer mb |
| 20260510110016 | 52 | 0.0 | 0.0 | 0.00 | 0.00 | 0.00 | 88 | 1016.7 | |
| 20260510103016 | 52 | 0.0 | 0.0 | 0.00 | 0.00 | 0.00 | 87 | 1016.6 | |
| 20260510100016 | 52 | 0.0 | 0.0 | 0.00 | 0.00 | 0.00 | 88 | 1016.3 | |
| 20260510093016 | 52 | 0.0 | 0.0 | 0.00 | 0.00 | 0.00 | 87 | 1015.9 | |
| 20260510090016 | 53 | 0.0 | 0.0 | 0.00 | 0.00 | 0.00 | 87 | 1015.8 | |
| 20260510083016 | 53 | 0.0 | 0.0 | 0.00 | 0.00 | 0.00 | 86 | 1015.8 | |
| 20260510080016 | 53 | 0.0 | 0.0 | 0.00 | 0.00 | 0.00 | 84 | 1015.6 | |
| 20260510073016 | 54 | 0.0 | 0.0 | 0.00 | 0.00 | 0.00 | 83 | 1015.8 | |
| 20260510070015 | 55 | 0.0 | 0.0 | 0.00 | 0.00 | 0.00 | 81 | 1015.7 | |
| 20260510063017 | 56 | 0.0 | 0.0 | 0.00 | 0.00 | 0.00 | 80 | 1015.8 | |
| 20260510060017 | 57 | 0.0 | 0.0 | 0.00 | 0.00 | 0.00 | 79 | 1015.8 | |
| 20260510053017 | 58 | 0.0 | 0.0 | 0.00 | 0.00 | 0.00 | 78 | 1015.6 | |
| 20260510050017 | 58 | 0.0 | 0.0 | 0.00 | 0.00 | 0.00 | 77 | 1015.7 | |
| 20260510043016 | 59 | 0.0 | 0.0 | 0.00 | 0.00 | 0.00 | 75 | 1015.7 | |
| 20260510040016 | 61 | 0.0 | 0.0 | 0.00 | 0.00 | 0.00 | 71 | 1015.5 | |
| 20260510033016 | 63 | 0.0 | 0.0 | 0.00 | 0.00 | 0.00 | 68 | 1015.5 | |
| 20260510030017 | 64 | 0.0 | 1.0 | 0.00 | 0.00 | 0.00 | 66 | 1015.6 | |
| 20260510023016 | 66 | 0.0 | 2.0 | 0.00 | 0.00 | 0.00 | 62 | 1015.8 | |
| 20260510020016 | 67 | 0.0 | 3.0 | 0.00 | 0.00 | 0.00 | 57 | 1016.0 | |
| 20260510013016 | 69 | 0.0 | 2.0 | 0.00 | 0.00 | 0.00 | 54 | 1016.6 | |
| 20260510010016 | 68 | 0.0 | 2.0 | 0.00 | 0.00 | 0.00 | 56 | 1016.8 | |
| 20260510003016 | 68 | 0.0 | 5.0 | 0.00 | 0.00 | 0.00 | 58 | 1017.1 | |
| 20260510000016 | 69 | 0.0 | 2.0 | 0.00 | 0.00 | 0.00 | 53 | 1017.4 | |
| 20260509213015 | 66 | 270 | 1.0 | 7.0 | 0.00 | 0.00 | 0.00 | 57 | 1018.6 |
| 20260509210016 | 66 | 270 | 1.0 | 6.0 | 0.00 | 0.00 | 0.00 | 60 | 1018.8 |
| 20260509203015 | 65 | 270 | 1.0 | 5.0 | 0.00 | 0.00 | 0.00 | 60 | 1019.0 |
| 20260509200015 | 64 | 270 | 1.0 | 5.0 | 0.00 | 0.00 | 0.00 | 63 | 1019.4 |
| 20260509193015 | 63 | 270 | 1.0 | 5.0 | 0.00 | 0.00 | 0.00 | 64 | 1019.9 |
| 20260509190016 | 64 | 90 | 1.0 | 4.0 | 0.00 | 0.00 | 0.00 | 63 | 1020.3 |
| 20260509183017 | 63 | 0.0 | 2.0 | 0.00 | 0.00 | 0.00 | 64 | 1020.6 | |
| 20260509180017 | 62 | 0.0 | 4.0 | 0.00 | 0.00 | 0.00 | 68 | 1020.7 | |
| 20260509173017 | 60 | 0.0 | 4.0 | 0.00 | 0.00 | 0.00 | 72 | 1021.0 | |
| 20260509170017 | 60 | 0.0 | 2.0 | 0.00 | 0.00 | 0.00 | 73 | 1021.1 | |
| 20260509163017 | 59 | 0.0 | 3.0 | 0.00 | 0.00 | 0.00 | 75 | 1021.3 | |
| 20260509160017 | 58 | 0.0 | 2.0 | 0.00 | 0.00 | 0.00 | 75 | 1021.6 | |
| 20260509153017 | 59 | 0.0 | 2.0 | 0.00 | 0.00 | 0.00 | 75 | 1021.7 | |
| 20260509150017 | 59 | 0.0 | 1.0 | 0.00 | 0.00 | 0.00 | 78 | 1022.0 | |
| 20260509143017 | 54 | 0.0 | 1.0 | 0.00 | 0.00 | 0.00 | 90 | 1022.0 | |
| 20260509140016 | 49 | 0.0 | 0.0 | 0.00 | 0.00 | 0.00 | 94 | 1022.3 | |
| 20260509133016 | 48 | 0.0 | 0.0 | 0.00 | 0.00 | 0.00 | 93 | 1022.2 | |
| 20260509130016 | 47 | 0.0 | 0.0 | 0.00 | 0.00 | 0.00 | 92 | 1022.1 | |
| 20260509123016 | 48 | 0.0 | 0.0 | 0.00 | 0.00 | 0.00 | 92 | 1022.0 | |
| 20260509120016 | 48 | 0.0 | 0.0 | 0.00 | 0.00 | 0.00 | 92 | 1022.2 | |
| 20260509113016 | 49 | 0.0 | 0.0 | 0.00 | 0.00 | 0.00 | 91 | 1022.2 |